Location: Bougoura
(13.1861°N, 5.0773°W)
Time: 10:19:22
(UTC+00:00)

Okean O Rocket - Visible Passes

Search period start: 20 June 2021 00:00
Search period end: 30 June 2021 00:00
Orbit: 622 x 645 km, 98.2° (Epoch: 19 June)

Date Brightness Start Highest point End Pass type
(mag) Time Alt. Az. Time Alt. Az. Time Alt. Az.
21 Jun 4.1 19:25:15 10° SSW 19:28:35 22° W 19:31:54 10° NW visible
22 Jun 4.7 19:48:56 10° WSW 19:50:01 11° W 19:51:07 10° W visible
25 Jun 3.5 19:14:10 10° SSW 19:17:58 30° W 19:21:46 10° NW visible
26 Jun 4.4 19:36:47 10° SW 19:39:24 16° W 19:42:00 10° WNW visible
